Location: Shepherdstown, WV
(39.4326°N, 77.8042°W)
Time: 04:12:26
(UTC-04:00)

Vanguard 1 - Pass Details

Date: 03 October 2021
Orbit: 653 x 3829 km, 34.2° (Epoch: 18 October)

Event Time Altitude Azimuth Distance (km) Brightness Sun altitude
Rises 23:48:44 0° 283° (WNW) 6,708 14.7 -51.1°
Reaches altitude 10° 23:52:51 10° 278° (W) 6,021 14.3 -51.4°
Enters shadow 00:06:49 45° 242° (WSW) 4,508 13.1 -52.6°
